Previsão horária em Al Manqaf

Hoje, 15 Junho, Terça-feira

Tempo Temperatura Precipitação Vento Pressão Humidade
00:00 +39°C° 0 mm 8 m/s 745 mmHg 14%
01:00 +39°C° 0 mm 8 m/s 745 mmHg 14%
02:00 +38°C° 0 mm 8 m/s 745 mmHg 15%
03:00 +38°C° 0 mm 8 m/s 744 mmHg 15%
04:00 +38°C° 0 mm 8 m/s 745 mmHg 15%
05:00 +38°C° 0 mm 8 m/s 745 mmHg 15%
06:00 +36°C° 0 mm 7 m/s 745 mmHg 15%
07:00 +40°C° 0 mm 8 m/s 745 mmHg 13%
08:00 +44°C° 0 mm 8 m/s 745 mmHg 11%
09:00 +48°C° 0 mm 8 m/s 745 mmHg 9%
10:00 +49°C° 0 mm 9 m/s 745 mmHg 8%
11:00 +51°C° 0 mm 9 m/s 745 mmHg 7%
12:00 +53°C° 0 mm 10 m/s 745 mmHg 6%
13:00 +53°C° 0 mm 10 m/s 744 mmHg 6%
14:00 +53°C° 0 mm 10 m/s 744 mmHg 6%
15:00 +53°C° 0 mm 10 m/s 744 mmHg 6%
16:00 +53°C° 0 mm 10 m/s 743 mmHg 6%
17:00 +52°C° 0 mm 10 m/s 743 mmHg 7%
18:00 +50°C° 0 mm 10 m/s 743 mmHg 7%
19:00 +49°C° 0 mm 10 m/s 744 mmHg 8%
20:00 +48°C° 0 mm 10 m/s 744 mmHg 9%
21:00 +45°C° 0 mm 9 m/s 745 mmHg 10%
22:00 +44°C° 0 mm 9 m/s 745 mmHg 11%
23:00 +43°C° 0 mm 9 m/s 745 mmHg 12%

Amanhã, 16 Junho, Quarta-feira

Tempo Temperatura Precipitação Vento Pressão Humidade
00:00 +42°C° 0 mm 9 m/s 745 mmHg 13%
01:00 +40°C° 0 mm 9 m/s 745 mmHg 14%
02:00 +40°C° 0 mm 10 m/s 745 mmHg 16%
03:00 +39°C° 0 mm 11 m/s 745 mmHg 17%
04:00 +38°C° 0 mm 11 m/s 745 mmHg 17%
05:00 +38°C° 0 mm 11 m/s 746 mmHg 18%
06:00 +38°C° 0 mm 11 m/s 747 mmHg 18%
07:00 +41°C° 0 mm 11 m/s 747 mmHg 15%
08:00 +42°C° 0 mm 11 m/s 747 mmHg 13%
09:00 +44°C° 0 mm 11 m/s 747 mmHg 10%
10:00 +46°C° 0 mm 11 m/s 747 mmHg 9%
11:00 +48°C° 0 mm 11 m/s 747 mmHg 7%
12:00 +49°C° 0 mm 11 m/s 747 mmHg 6%
13:00 +49°C° 0 mm 11 m/s 747 mmHg 5%
14:00 +51°C° 0 mm 11 m/s 746 mmHg 5%
15:00 +50°C° 0 mm 10 m/s 746 mmHg 5%
16:00 +49°C° 0 mm 10 m/s 746 mmHg 5%
17:00 +48°C° 0 mm 10 m/s 746 mmHg 5%
18:00 +47°C° 0 mm 10 m/s 746 mmHg 6%
19:00 +45°C° 0 mm 10 m/s 747 mmHg 7%
20:00 +43°C° 0 mm 9 m/s 747 mmHg 8%
21:00 +42°C° 0 mm 9 m/s 748 mmHg 9%
22:00 +40°C° 0 mm 9 m/s 748 mmHg 9%
23:00 +39°C° 0 mm 9 m/s 748 mmHg 10%

Depois de amanhã, 17 Junho, Quinta-feira

Tempo Temperatura Precipitação Vento Pressão Humidade
00:00 +38°C° 0 mm 9 m/s 748 mmHg 11%
01:00 +37°C° 0 mm 9 m/s 748 mmHg 13%
02:00 +37°C° 0 mm 10 m/s 747 mmHg 14%
03:00 +36°C° 0 mm 10 m/s 747 mmHg 15%
04:00 +36°C° 0 mm 10 m/s 748 mmHg 16%
05:00 +36°C° 0 mm 10 m/s 748 mmHg 16%
06:00 +36°C° 0 mm 10 m/s 748 mmHg 17%
07:00 +37°C° 0 mm 11 m/s 748 mmHg 15%
08:00 +39°C° 0 mm 11 m/s 748 mmHg 14%
09:00 +42°C° 0 mm 12 m/s 748 mmHg 12%
10:00 +43°C° 0 mm 12 m/s 748 mmHg 10%
11:00 +46°C° 0 mm 12 m/s 748 mmHg 9%
12:00 +47°C° 0 mm 12 m/s 748 mmHg 7%
13:00 +48°C° 0 mm 12 m/s 747 mmHg 7%
14:00 +48°C° 0 mm 11 m/s 747 mmHg 7%
15:00 +48°C° 0 mm 11 m/s 747 mmHg 7%
16:00 +48°C° 0 mm 11 m/s 747 mmHg 7%
17:00 +47°C° 0 mm 11 m/s 747 mmHg 8%
18:00 +46°C° 0 mm 11 m/s 747 mmHg 8%
19:00 +44°C° 0 mm 11 m/s 747 mmHg 10%
20:00 +42°C° 0 mm 11 m/s 748 mmHg 11%
21:00 +41°C° 0 mm 11 m/s 748 mmHg 13%
22:00 +39°C° 0 mm 11 m/s 748 mmHg 13%
23:00 +38°C° 0 mm 11 m/s 748 mmHg 14%

18 Junho, Sexta-feira

Tempo Temperatura Precipitação Vento Pressão Humidade
00:00 +37°C° 0 mm 11 m/s 747 mmHg 15%
01:00 +37°C° 0 mm 11 m/s 747 mmHg 15%
02:00 +36°C° 0 mm 11 m/s 747 mmHg 16%
03:00 +34°C° 0 mm 11 m/s 747 mmHg 17%
04:00 +34°C° 0 mm 10 m/s 747 mmHg 17%
05:00 +34°C° 0 mm 10 m/s 747 mmHg 18%
06:00 +34°C° 0 mm 10 m/s 747 mmHg 19%
07:00 +37°C° 0 mm 10 m/s 747 mmHg 17%
08:00 +38°C° 0 mm 11 m/s 747 mmHg 15%
09:00 +41°C° 0 mm 11 m/s 747 mmHg 13%
10:00 +43°C° 0 mm 10 m/s 747 mmHg 11%
11:00 +45°C° 0 mm 10 m/s 747 mmHg 10%
12:00 +47°C° 0 mm 9 m/s 747 mmHg 9%
13:00 +48°C° 0 mm 9 m/s 746 mmHg 8%
14:00 +49°C° 0 mm 8 m/s 746 mmHg 8%
15:00 +49°C° 0 mm 8 m/s 745 mmHg 7%
16:00 +49°C° 0 mm 8 m/s 745 mmHg 8%
17:00 +47°C° 0 mm 7 m/s 745 mmHg 8%
18:00 +47°C° 0 mm 7 m/s 745 mmHg 9%
19:00 +45°C° 0 mm 7 m/s 746 mmHg 9%
20:00 +43°C° 0 mm 7 m/s 746 mmHg 10%
21:00 +41°C° 0 mm 7 m/s 746 mmHg 11%
22:00 +40°C° 0 mm 7 m/s 746 mmHg 11%
23:00 +39°C° 0 mm 7 m/s 746 mmHg 12%

19 Junho, Sábado

Tempo Temperatura Precipitação Vento Pressão Humidade
00:00 +38°C° 0 mm 8 m/s 746 mmHg 13%
01:00 +38°C° 0 mm 8 m/s 746 mmHg 13%
02:00 +36°C° 0 mm 7 m/s 747 mmHg 14%
03:00 +36°C° 0 mm 7 m/s 747 mmHg 14%
04:00 +36°C° 0 mm 7 m/s 747 mmHg 15%
05:00 +36°C° 0 mm 7 m/s 747 mmHg 15%
06:00 +36°C° 0 mm 7 m/s 748 mmHg 15%
07:00 +39°C° 0 mm 8 m/s 748 mmHg 14%
08:00 +41°C° 0 mm 8 m/s 748 mmHg 12%
09:00 +44°C° 0 mm 8 m/s 748 mmHg 11%
10:00 +46°C° 0 mm 7 m/s 748 mmHg 10%
11:00 +47°C° 0 mm 6 m/s 748 mmHg 9%
12:00 +49°C° 0 mm 5 m/s 748 mmHg 7%
13:00 +49°C° 0 mm 5 m/s 748 mmHg 7%
14:00 +50°C° 0 mm 4 m/s 747 mmHg 7%
15:00 +50°C° 0 mm 4 m/s 747 mmHg 6%
16:00 +48°C° 0 mm 3 m/s 747 mmHg 7%
17:00 +48°C° 0 mm 3 m/s 747 mmHg 7%
18:00 +47°C° 0 mm 3 m/s 747 mmHg 8%
19:00 +45°C° 0 mm 3 m/s 747 mmHg 8%
20:00 +44°C° 0 mm 4 m/s 747 mmHg 9%
21:00 +42°C° 0 mm 4 m/s 748 mmHg 9%
22:00 +41°C° 0 mm 5 m/s 748 mmHg 9%
23:00 +41°C° 0 mm 5 m/s 748 mmHg 10%

20 Junho, Domingo

Tempo Temperatura Precipitação Vento Pressão Humidade
00:00 +40°C° 0 mm 6 m/s 748 mmHg 10%
01:00 +39°C° 0 mm 6 m/s 748 mmHg 10%
02:00 +39°C° 0 mm 6 m/s 748 mmHg 11%
03:00 +38°C° 0 mm 6 m/s 748 mmHg 11%
04:00 +38°C° 0 mm 6 m/s 748 mmHg 12%
05:00 +38°C° 0 mm 6 m/s 749 mmHg 12%
06:00 +38°C° 0 mm 6 m/s 749 mmHg 12%
07:00 +40°C° 0 mm 6 m/s 749 mmHg 11%
08:00 +42°C° 0 mm 6 m/s 749 mmHg 10%
09:00 +45°C° 0 mm 6 m/s 750 mmHg 10%
10:00 +47°C° 0 mm 5 m/s 749 mmHg 8%
11:00 +48°C° 0 mm 4 m/s 749 mmHg 7%
12:00 +50°C° 0 mm 4 m/s 749 mmHg 6%
13:00 +50°C° 0 mm 4 m/s 748 mmHg 6%
14:00 +51°C° 0 mm 4 m/s 748 mmHg 5%
15:00 +52°C° 0 mm 4 m/s 747 mmHg 4%
16:00 +51°C° 0 mm 4 m/s 747 mmHg 5%
17:00 +50°C° 0 mm 4 m/s 747 mmHg 6%
18:00 +48°C° 0 mm 3 m/s 747 mmHg 7%
19:00 +48°C° 0 mm 4 m/s 747 mmHg 7%
20:00 +46°C° 0 mm 5 m/s 747 mmHg 7%
21:00 +43°C° 0 mm 5 m/s 748 mmHg 7%
22:00 +42°C° 0 mm 6 m/s 748 mmHg 8%
23:00 +41°C° 0 mm 6 m/s 748 mmHg 9%
Mostrar mais